User: anonymous   Login
Location: Unspecified
(0.0000°N, 0.0000°E)
Time: 21:49:20
(UTC+00:00)
Language:

PAYLOAD B - Orbit

View from above orbital plane
View from above orbital plane
View from above satellite
View from above satellite

Ground track
Ground track

The orbit data is extracted from the following two-line orbital elements,

1 27056U 01058B   17117.70632105 -.00000015 +00000-0 -14467-3 0  9998
2 27056 082.5406 194.1177 0005651 186.0325 174.0701 12.60505790705455
Epoch (UTC): 27 April 2017 16:57:06
Eccentricity: 0.0005651
inclination: 82.5406°
perigee height: 1416 km
apogee height: 1425 km
right ascension of ascending node: 194.1177°
argument of perigee: 186.0325°
revolutions per day: 12.60505790
mean anomaly at epoch: 174.0701°
orbit number at epoch: 70545

The dashed part of the orbit path shows where the satellite is in the earth's shadow,  

DLR